CW3699 Weather Reports


Display with metric or nautical units.
time (UTC)temp
F
wind
direction
speed
MPH
gust
MPH
rain 1hr
in
rain 24hr
in
rain mn
in
humidity
%
barometer
mb
20260508102412 31 178 2.0 3.0 0.00 0.00 0.00 91 1009.7
20260508101912 31 181 2.0 3.0 0.00 0.00 0.00 91 1009.7
20260508101412 31 174 2.0 3.0 0.00 0.00 0.00 91 1009.7
20260508100912 31 175 2.0 3.0 0.00 0.00 0.00 90 1009.6
20260508095911 31 173 2.0 3.0 0.00 0.00 0.00 91 1009.6
20260508095412 31 176 2.0 3.0 0.00 0.00 0.00 90 1009.6
20260508094912 31 187 2.0 3.0 0.00 0.00 0.00 90 1009.6
20260508094411 31 182 2.0 3.0 0.00 0.00 0.00 90 1009.6
20260508093911 31 184 2.0 3.0 0.00 0.00 0.00 89 1009.7
20260508093410 31 176 2.0 3.0 0.00 0.00 0.00 89 1009.8
20260508092910 31 184 2.0 3.0 0.00 0.00 0.00 89 1009.7
20260508092412 31 180 3.0 3.0 0.00 0.00 0.00 89 1009.7
20260508091412 32 169 2.0 3.0 0.00 0.00 0.00 88 1009.9
20260508090910 32 187 2.0 5.0 0.00 0.00 0.00 88 1009.9
20260508090412 32 183 1.0 2.0 0.00 0.00 0.00 88 1009.9
20260508085911 32 187 0.0 2.0 0.00 0.00 0.00 88 1010.0
20260508085410 32 164 1.0 3.0 0.00 0.00 0.00 88 1010.0
20260508083910 32 175 1.0 3.0 0.00 0.00 0.00 89 1010.0
20260508083414 32 181 1.0 3.0 0.00 0.00 0.00 90 1009.9
20260508082412 32 203 1.0 3.0 0.00 0.00 0.00 90 1009.9
20260508081411 32 166 2.0 3.0 0.00 0.00 0.00 91 1010.0
20260508080912 31 188 2.0 3.0 0.00 0.00 0.00 91 1010.0
20260508080410 31 185 3.0 5.0 0.00 0.00 0.00 90 1010.0
20260508075910 31 190 2.0 3.0 0.00 0.00 0.00 90 1009.9
20260508075410 31 172 2.0 5.0 0.00 0.00 0.00 90 1009.9
20260508074910 31 173 2.0 3.0 0.00 0.00 0.00 90 1010.0
20260508074412 31 168 2.0 5.0 0.00 0.00 0.00 90 1010.0
20260508073912 31 174 2.0 3.0 0.00 0.00 0.00 90 1010.1
20260508072912 31 174 2.0 5.0 0.00 0.00 0.00 90 1010.2
20260508072411 31 179 2.0 3.0 0.00 0.00 0.00 90 1010.3
20260508071411 31 168 2.0 3.0 0.00 0.00 0.00 90 1010.4
20260508070911 31 166 2.0 3.0 0.00 0.00 0.00 90 1010.5
20260508070414 31 164 2.0 3.0 0.00 0.00 0.00 90 1010.5
20260508065910 31 172 2.0 3.0 0.00 0.00 0.00 90 1010.7
20260508065410 31 167 2.0 3.0 0.00 0.00 0.00 90 1010.7
20260508064911 31 169 2.0 3.0 0.00 0.00 0.00 90 1010.8
20260508064410 31 176 2.0 3.0 0.00 0.00 0.00 90 1010.9
20260508063911 31 187 2.0 3.0 0.00 0.00 0.00 90 1010.9
20260508063413 31 182 1.0 3.0 0.00 0.00 0.00 90 1011.0
20260508062911 32 182 1.0 2.0 0.00 0.00 0.00 90 1011.0
20260508062411 32 218 1.0 2.0 0.00 0.00 0.00 90 1011.0
20260508061410 32 182 1.0 3.0 0.00 0.00 0.00 90 1011.0
20260508060412 32 180 1.0 2.0 0.00 0.00 0.00 90 1010.9
20260508055912 32 179 1.0 2.0 0.00 0.00 0.00 90 1010.9
20260508055410 32 164 2.0 3.0 0.00 0.00 0.00 90 1011.0
20260508054912 32 161 2.0 3.0 0.00 0.00 0.00 90 1011.1
20260508054411 32 165 1.0 3.0 0.00 0.00 0.00 89 1011.1
20260508053410 33 152 1.0 2.0 0.00 0.00 0.00 89 1011.2
20260508052410 33 166 1.0 3.0 0.00 0.00 0.00 89 1011.3
20260508051910 33 159 1.0 3.0 0.00 0.00 0.00 89 1011.3
20260508051410 33 165 1.0 2.0 0.00 0.00 0.00 89 1011.4
20260508050910 34 162 1.0 2.0 0.00 0.00 0.00 89 1011.4
20260508050414 34 164 2.0 3.0 0.00 0.00 0.00 89 1011.5
20260508045911 34 172 2.0 3.0 0.00 0.00 0.00 89 1011.5
20260508044911 34 155 2.0 2.0 0.00 0.00 0.00 89 1011.4
20260508044410 34 162 1.0 2.0 0.00 0.00 0.00 89 1011.4
20260508043911 34 160 1.0 2.0 0.00 0.00 0.00 89 1011.4
20260508043414 34 165 1.0 2.0 0.00 0.00 0.00 88 1011.4
20260508042910 35 164 1.0 2.0 0.00 0.00 0.00 88 1011.4
20260508042410 35 158 1.0 2.0 0.00 0.00 0.00 88 1011.4
20260508041910 35 164 1.0 2.0 0.00 0.00 0.00 87 1011.4
20260508041411 35 162 1.0 2.0 0.00 0.00 0.00 86 1011.4
20260508040910 35 159 1.0 2.0 0.00 0.00 0.00 86 1011.5
20260508040411 35 183 1.0 3.0 0.00 0.00 0.00 86 1011.4
20260508035912 36 162 1.0 3.0 0.00 0.00 0.00 85 1011.4
20260508035411 36 147 2.0 3.0 0.00 0.00 0.00 84 1011.4
20260508034911 37 153 1.0 2.0 0.00 0.00 0.00 83 1011.3
20260508034412 37 167 1.0 2.0 0.00 0.00 0.00 83 1011.4
20260508033912 37 169 2.0 2.0 0.00 0.00 0.00 83 1011.4
20260508033412 38 177 1.0 2.0 0.00 0.00 0.00 83 1011.3
20260508032911 38 184 1.0 2.0 0.00 0.00 0.00 83 1011.4
20260508032412 39 149 1.0 2.0 0.00 0.00 0.00 83 1011.4
20260508031912 39 156 1.0 2.0 0.00 0.00 0.00 82 1011.4
20260508031411 39 153 1.0 2.0 0.00 0.00 0.00 82 1011.3
20260508030910 40 159 1.0 2.0 0.00 0.00 0.00 82 1011.3
20260508030411 40 161 2.0 3.0 0.00 0.00 0.00 81 1011.4
20260508025912 40 165 1.0 3.0 0.00 0.00 0.00 81 1011.4
20260508024910 40 146 1.0 2.0 0.00 0.00 0.00 81 1011.3
20260508024411 41 237 0.0 1.0 0.00 0.00 0.00 81 1011.3
20260508023910 41 187 1.0 3.0 0.00 0.00 0.00 81 1011.4
20260508023410 41 19 1.0 3.0 0.00 0.00 0.00 81 1011.4
20260508022910 41 177 0.0 2.0 0.00 0.00 0.00 80 1011.4
20260508021410 41 238 1.0 3.0 0.00 0.00 0.00 80 1011.2
20260508020911 41 170 2.0 3.0 0.00 0.00 0.00 80 1011.4
20260508020410 41 166 1.0 3.0 0.00 0.00 0.00 79 1011.4
20260508015911 41 204 0.0 3.0 0.00 0.00 0.00 80 1011.4
20260508014910 42 80 1.0 2.0 0.00 0.00 0.00 79 1011.4
20260508014411 42 38 1.0 2.0 0.00 0.00 0.00 79 1011.4
20260508013410 42 81 0.0 2.0 0.00 0.00 0.00 78 1011.4
20260508012910 42 187 1.0 3.0 0.00 0.00 0.00 77 1011.3
20260508011409 42 179 1.0 3.0 0.00 0.00 0.00 75 1011.1
20260508010911 42 133 0.0 1.0 0.00 0.00 0.00 74 1011.1
20260508010412 42 161 0.0 1.0 0.00 0.00 0.00 73 1011.1
20260508005911 42 122 0.0 2.0 0.00 0.00 0.00 73 1011.0
20260508005411 43 275 0.0 1.0 0.00 0.00 0.00 73 1011.1
20260508004912 43 82 0.0 2.0 0.00 0.00 0.00 73 1010.9
20260508004411 43 223 0.0 1.0 0.00 0.00 0.00 74 1010.9
20260508003911 43 54 1.0 2.0 0.00 0.00 0.00 74 1010.9
20260508003411 43 179 1.0 2.0 0.00 0.00 0.00 75 1010.9
20260508002911 43 214 0.0 1.0 0.00 0.00 0.00 75 1010.9
20260508002410 43 240 0.0 2.0 0.00 0.00 0.00 76 1010.8
20260508001410 44 358 1.0 2.0 0.00 0.00 0.00 74 1010.7
20260508000911 44 354 1.0 2.0 0.00 0.00 0.00 75 1010.7
20260508000412 44 336 0.0 3.0 0.00 0.00 0.00 74 1010.7
20260507235910 44 268 1.0 3.0 0.00 0.00 0.00 73 1010.7
20260507235410 44 340 1.0 2.0 0.00 0.00 0.00 73 1010.7
20260507234912 44 319 1.0 2.0 0.00 0.00 0.00 73 1010.6
20260507234411 44 351 1.0 2.0 0.00 0.00 0.00 72 1010.6
20260507233912 44 16 1.0 2.0 0.00 0.00 0.00 71 1010.6
20260507233410 44 12 1.0 2.0 0.00 0.00 0.00 72 1010.6
20260507232911 44 2 1.0 2.0 0.00 0.00 0.00 72 1010.5
20260507232411 45 333 1.0 3.0 0.00 0.00 0.00 71 1010.6
20260507231910 45 343 1.0 3.0 0.00 0.00 0.00 73 1010.6
20260507231409 45 10 1.0 6.0 0.00 0.00 0.00 71 1010.6
20260507230911 45 34 1.0 2.0 0.00 0.00 0.00 73 1010.6
20260507230411 45 311 1.0 2.0 0.00 0.00 0.00 73 1010.6
20260507225409 45 344 1.0 3.0 0.00 0.00 0.00 72 1010.7
20260507224909 45 340 2.0 3.0 0.00 0.00 0.00 71 1010.7
20260507224411 45 346 1.0 3.0 0.00 0.00 0.00 70 1010.7
20260507223911 45 346 2.0 3.0 0.00 0.00 0.00 70 1010.7
20260507223411 45 334 2.0 3.0 0.00 0.00 0.00 70 1010.7
20260507222909 45 332 2.0 3.0 0.00 0.00 0.00 69 1010.7
20260507222411 45 338 2.0 3.0 0.00 0.00 0.00 67 1010.7
20260507221910 45 343 2.0 5.0 0.00 0.00 0.00 67 1010.7
20260507221409 46 339 2.0 5.0 0.00 0.00 0.00 66 1010.6
20260507220911 46 339 2.0 3.0 0.00 0.00 0.00 65 1010.6
20260507220411 46 359 2.0 5.0 0.00 0.00 0.00 66 1010.6
20260507215410 46 341 2.0 3.0 0.00 0.00 0.00 67 1010.6
20260507213910 46 342 2.0 5.0 0.00 0.00 0.00 66 1010.5
20260507213411 46 345 2.0 3.0 0.00 0.00 0.00 66 1010.5
20260507212911 46 337 2.0 3.0 0.00 0.00 0.00 65 1010.5
20260507211409 46 347 2.0 5.0 0.00 0.00 0.00 65 1010.5
20260507205911 46 328 2.0 3.0 0.00 0.00 0.00 63 1010.5
20260507205411 46 350 3.0 7.0 0.00 0.00 0.00 63 1010.5
20260507204913 47 358 2.0 8.0 0.00 0.00 0.00 62 1010.5
20260507204411 47 342 2.0 3.0 0.00 0.00 0.00 64 1010.5
20260507203910 47 343 2.0 3.0 0.00 0.00 0.00 63 1010.5
20260507202911 48 6 2.0 8.0 0.00 0.00 0.00 58 1010.4
20260507202411 48 357 2.0 6.0 0.00 0.00 0.00 54 1010.5
20260507201410 47 79 1.0 3.0 0.00 0.00 0.00 63 1010.5
20260507200910 47 21 2.0 3.0 0.00 0.00 0.00 61 1010.5
20260507200412 47 19 2.0 5.0 0.00 0.00 0.00 59 1010.5
20260507195910 47 88 2.0 7.0 0.00 0.00 0.00 61 1010.6
20260507195411 48 13 2.0 5.0 0.00 0.00 0.00 61 1010.6
20260507194911 48 3 2.0 6.0 0.00 0.00 0.00 61 1010.7
20260507194410 48 300 3.0 8.0 0.00 0.00 0.00 49 1010.6
20260507193910 48 310 4.0 8.0 0.00 0.00 0.00 50 1010.7
20260507193410 48 13 2.0 6.0 0.00 0.00 0.00 53 1010.7
20260507192910 48 338 3.0 9.0 0.00 0.00 0.00 53 1010.8
20260507192411 48 263 1.0 5.0 0.00 0.00 0.00 55 1010.9
20260507191910 47 233 5.0 17.0 0.00 0.00 0.00 55 1010.8
20260507190911 46 171 1.0 3.0 0.00 0.00 0.00 63 1011.1
20260507190410 46 9 2.0 5.0 0.00 0.00 0.00 67 1011.1
20260507185910 46 51 1.0 3.0 0.00 0.00 0.00 66 1011.1
20260507184911 46 9 2.0 5.0 0.00 0.00 0.00 67 1011.1
20260507184411 46 349 2.0 6.0 0.00 0.00 0.00 68 1011.1
20260507183910 46 0 2.0 3.0 0.00 0.00 0.00 69 1011.2
20260507183411 46 5 3.0 6.0 0.00 0.00 0.00 69 1011.2
20260507182911 45 6 2.0 7.0 0.00 0.00 0.00 70 1011.3
20260507182409 45 356 4.0 7.0 0.00 0.00 0.00 70 1011.4
20260507181911 46 358 3.0 7.0 0.00 0.00 0.00 71 1011.4
20260507180910 46 356 4.0 8.0 0.00 0.00 0.00 69 1011.4
20260507180413 46 0 3.0 9.0 0.00 0.00 0.00 68 1011.5
20260507175911 46 15 3.0 6.0 0.00 0.00 0.00 69 1011.6
20260507175411 46 3 2.0 5.0 0.00 0.00 0.00 69 1011.7
20260507174910 46 20 3.0 7.0 0.00 0.00 0.00 68 1011.7
20260507174411 46 50 2.0 3.0 0.00 0.00 0.00 67 1011.8
20260507173411 46 18 2.0 5.0 0.00 0.00 0.00 68 1011.9
20260507172910 46 12 2.0 6.0 0.00 0.00 0.00 69 1011.9
20260507172410 45 328 2.0 7.0 0.00 0.00 0.00 68 1012.0
20260507171910 44 281 1.0 7.0 0.00 0.00 0.00 69 1012.0
20260507164910 44 22 1.0 3.0 0.00 0.00 0.00 72 1012.3
20260507164410 44 4 2.0 3.0 0.00 0.00 0.00 72 1012.4
20260507163909 43 356 1.0 3.0 0.00 0.00 0.00 72 1012.4
20260507163412 43 32 2.0 5.0 0.00 0.00 0.00 73 1012.5
20260507162910 43 319 2.0 3.0 0.00 0.00 0.00 75 1012.5
20260507162410 43 42 1.0 3.0 0.00 0.00 0.00 75 1012.5
20260507161910 43 346 1.0 3.0 0.00 0.00 0.00 71 1012.5
20260507161410 43 338 1.0 6.0 0.00 0.00 0.00 71 1012.6
20260507160910 43 22 2.0 3.0 0.00 0.00 0.00 72 1012.6
20260507160410 44 25 2.0 3.0 0.00 0.00 0.00 70 1012.7
20260507155911 44 345 1.0 5.0 0.00 0.00 0.00 68 1012.6
20260507155410 44 336 3.0 6.0 0.00 0.00 0.00 67 1012.7
20260507154909 44 352 3.0 6.0 0.00 0.00 0.00 66 1012.7
20260507154410 45 349 3.0 6.0 0.00 0.00 0.00 66 1012.6
20260507153911 45 346 4.0 7.0 0.00 0.00 0.00 65 1012.7
20260507153410 45 345 3.0 6.0 0.00 0.00 0.00 66 1012.7
20260507152910 45 349 3.0 6.0 0.00 0.00 0.00 65 1012.7
20260507152410 45 280 2.0 5.0 0.00 0.00 0.00 65 1012.7
20260507151910 44 341 1.0 3.0 0.00 0.00 0.00 65 1012.7
20260507151410 44 28 1.0 5.0 0.00 0.00 0.00 67 1012.7
20260507150910 44 9 2.0 5.0 0.00 0.00 0.00 67 1012.7
20260507150410 44 316 2.0 5.0 0.00 0.00 0.00 66 1012.7
20260507145910 44 20 1.0 3.0 0.00 0.00 0.00 67 1012.7
20260507145409 44 345 2.0 3.0 0.00 0.00 0.00 66 1012.7
20260507144911 44 14 2.0 5.0 0.00 0.00 0.00 64 1012.6
20260507144410 44 353 2.0 3.0 0.00 0.00 0.00 65 1012.6
20260507143910 44 321 1.0 3.0 0.00 0.00 0.00 64 1012.6
20260507143410 44 253 2.0 6.0 0.00 0.00 0.00 62 1012.6
20260507142909 44 239 1.0 3.0 0.00 0.00 0.00 64 1012.7
20260507142410 44 242 2.0 7.0 0.00 0.00 0.00 65 1012.7
20260507141910 43 41 2.0 3.0 0.00 0.00 0.00 66 1012.7
20260507141409 43 246 2.0 7.0 0.00 0.00 0.00 66 1012.8
20260507140411 43 19 3.0 7.0 0.00 0.00 0.00 66 1012.8
20260507135910 43 254 2.0 6.0 0.00 0.00 0.00 68 1012.8
20260507134910 43 261 2.0 6.0 0.00 0.00 0.00 70 1012.8
20260507134410 42 326 2.0 5.0 0.00 0.00 0.00 72 1012.8
20260507133910 42 206 1.0 3.0 0.00 0.00 0.00 72 1012.7
20260507133409 42 267 1.0 6.0 0.00 0.00 0.00 73 1012.7
20260507132909 42 294 1.0 3.0 0.00 0.00 0.00 74 1012.8
20260507132410 41 175 2.0 6.0 0.00 0.00 0.00 73 1012.8
20260507131915 41 229 2.0 6.0 0.00 0.00 0.00 74 1012.7
20260507130910 41 174 3.0 7.0 0.00 0.00 0.00 76 1012.7
20260507130410 41 266 2.0 5.0 0.00 0.00 0.00 78 1012.8
20260507125909 40 143 2.0 8.0 0.00 0.00 0.00 77 1012.7
20260507125409 40 223 4.0 7.0 0.00 0.00 0.00 78 1012.7
20260507124910 40 220 1.0 5.0 0.00 0.00 0.00 79 1012.7
20260507124409 39 220 2.0 7.0 0.00 0.00 0.00 80 1012.6
20260507123909 39 153 3.0 5.0 0.00 0.00 0.00 82 1012.6
20260507123409 38 208 2.0 5.0 0.00 0.00 0.00 84 1012.6
20260507122910 38 267 1.0 3.0 0.00 0.00 0.00 85 1012.6
20260507120910 35 244 2.0 3.0 0.00 0.00 0.00 92 1012.5
20260507120410 35 225 2.0 3.0 0.00 0.00 0.00 92 1012.5
20260507115909 34 191 2.0 3.0 0.00 0.00 0.00 93 1012.5
20260507115410 33 236 2.0 3.0 0.00 0.00 0.00 93 1012.5
20260507114910 33 167 1.0 3.0 0.00 0.00 0.00 93 1012.5
20260507114409 32 185 2.0 3.0 0.00 0.00 0.00 93 1012.4
20260507113910 32 173 1.0 3.0 0.00 0.00 0.00 93 1012.4
20260507113410 32 185 1.0 3.0 0.00 0.00 0.00 92 1012.4
20260507112910 31 192 1.0 3.0 0.00 0.00 0.00 92 1012.4
20260507112410 31 167 1.0 3.0 0.00 0.00 0.00 93 1012.4
20260507111910 31 163 1.0 2.0 0.00 0.00 0.00 93 1012.3
20260507111410 30 179 1.0 3.0 0.00 0.00 0.00 93 1012.3
20260507110910 30 175 2.0 3.0 0.00 0.00 0.00 93 1012.3
20260507110410 30 192 2.0 3.0 0.00 0.00 0.00 92 1012.3
20260507104909 29 165 2.0 3.0 0.00 0.00 0.00 91 1012.3
20260507104410 29 180 2.0 3.0 0.00 0.00 0.00 92 1012.2
20260507103910 29 164 2.0 3.0 0.00 0.00 0.00 91 1012.3
20260507103410 29 166 2.0 3.0 0.00 0.00 0.00 91 1012.2
20260507102910 29 166 2.0 3.0 0.00 0.00 0.00 91 1012.3